Terminal Aerodrome Forecast
Issued by NWS Charleston, WV

Current Version | Previous Version | Text Only | Print | Product List | Glossary Off
Versions: 1 2 3 4 5 6 7 8 9 10 11 12 13 14 15 16 17 18 19 20 21 22 23 24 25 26 27 28

000
FTUS41 KRLX 011406 AAA
TAFHTS
TAF AMD
KHTS 011406Z 0114/0212 00000KT P6SM BKN008
     FM011530 VRB03KT P6SM BKN014
     FM011600 VRB03KT P6SM SCT014
     FM020000 VRB03KT P6SM VCTS SCT050CB
     FM020700 VRB04KT 5SM BR VCTS BKN080CB=

USA.gov is the U.S. government's official web portal to all federal, state and local government web resources and services.